Regional Weather Roundup
Issued by NWS

Home | Current Version | Previous Version | Text Only | Print | Product List | Glossary Off
Versions: 1 2 3 4 5 6 7 8 9 10 11 12 13 14 15 16 17 18 19 20 21 22 23 24 25 26

000
ASUS45 KTFX 251810
RWRMT
MONTANA REGIONAL WEATHER ROUNDUP
NATIONAL WEATHER SERVICE GREAT FALLS MT
1200 PM MDT WED MAY 25 2016

NOTE: "FAIR" INDICATES FEW OR NO CLOUDS BELOW 12000 FEET WITH NO
SIGNIFICANT WEATHER AND/OR OBSTRUCTIONS TO VISIBILITY.

MTZ001>007-043-251900-
WEST OF THE DIVIDE

CITY           SKY/WX    TMP DP  RH WIND       PRES   REMARKS
KALISPELL      CLOUDY    57  47  69 S8        29.97F
MISSOULA       MOSUNNY   55  44  66 CALM      30.02F
BUTTE          MOSUNNY   53  33  46 NW14      30.02S
MULLAN PASS    CLOUDY    41  40  96 VRB7      30.06R
ANACONDA         N/A     54  34  47 SW13      30.00S
DEER LODGE       N/A     55  39  54 CALM      30.01F
EUREKA           N/A     66  45  45 S3        29.94F
HAMILTON         N/A     57  37  47 S7        30.02S
LIBBY            N/A     64  45  48 CALM      29.96S
$$

MTZ008-052>055-251900-
SOUTHWEST MONTANA

CITY           SKY/WX    TMP DP  RH WIND       PRES   REMARKS
BOZEMAN        MOSUNNY   56  38  50 W8        29.98S
DILLON         MOSUNNY   55  35  47 NW3       29.99S
ENNIS          MOSUNNY   54  36  50 VRB6      30.04S
$$

MTZ009-010-012-014-046-048-049-054-251900-
EAST SLOPES AND CENTRAL MONTANA

CITY           SKY/WX    TMP DP  RH WIND       PRES   REMARKS
CUT BANK       MOSUNNY   61  41  47 NW7       29.86F
GREAT FALLS    SUNNY     63  38  39 SW15      29.89S
MALMSTROM AFB  MOSUNNY   62  39  42 SW15      29.89S
HELENA         SUNNY     62  38  40 W17       29.95R
CHOTEAU          N/A     63  37  39 NW10      29.88S
$$

MTZ011-013-016-021-045-047-050-051-251900-
NORTH CENTRAL MONTANA

CITY           SKY/WX    TMP DP  RH WIND       PRES   REMARKS
HAVRE            N/A    N/A N/A N/A MISG      29.86F
LEWISTOWN      MOSUNNY   61  36  39 SW6       29.89F
N BAR RANCH      N/A    N/A N/A N/A CALM      29.91F
CHINOOK          N/A     63  46  55 W6        29.86F
$$

MTZ017>020-022>027-061-062-251900-
NORTHEAST MONTANA

CITY           SKY/WX    TMP DP  RH WIND       PRES   REMARKS
GLASGOW        PTSUNNY   60  43  53 VRB3      29.86F
JORDAN           N/A     63  41  44 W8        29.86F
SIDNEY         LGT RAIN  53  49  86 N16       29.86S
WOLF POINT     CLOUDY    60  48  64 E7        29.88S
PLENTYWOOD       N/A     52  48  87 NW10G17   29.88F
POPLAR           N/A     54  46  76 N9        29.88S
$$

MTZ028>42-056>058-251900-
SOUTHCENTRAL AND SOUTHEAST MONTANA

CITY           SKY/WX    TMP DP  RH WIND       PRES   REMARKS
BAKER          CLOUDY    54  45  71 NW15      29.88R
BILLINGS       PTSUNNY   60  43  53 VRB7      29.91S
LIVINGSTON     SUNNY     60  35  39 W21G30    29.93F
MILES CITY     PTSUNNY   61  50  67 NW6       29.88S
FORSYTH          N/A     63  46  55 W5        29.87F
$$

REGIONAL REPORTS...DAKOTAS

CITY           SKY/WX    TMP DP  RH WIND       PRES   REMARKS
WILLISTON      CLOUDY    54  49  83 N17       29.83S
MINOT          CLOUDY    62  55  77 NE5       29.80F
DICKINSON      CLOUDY    61  51  70 W14       29.79S
BEACH          PTSUNNY   54  52  94 N20G25    29.89S
CROSBY         CLOUDY    52  52 100 NW10      29.86S
WATFORD CITY   CLOUDY    54  50  87 NW15G24   29.82S
BISMARCK       CLOUDY    63  58  83 SE8       29.80R
GRAND FORKS    TSTM      62  60  93 W18G24    29.78S VSB 1/2
FARGO          LGT RAIN  64  59  83 E13       29.74F
BUFFALO SD       N/A     61  44  53 NW25G32   29.80R
RAPID CITY     PTSUNNY   64  52  64 N13G22    29.84S
$$

REGIONAL REPORTS...WYOMING/IDAHO/WASHINGTON

CITY           SKY/WX    TMP DP  RH WIND       PRES   REMARKS
GILLETTE       PTSUNNY   55  43  63 NW6       29.93S
SHERIDAN       PTSUNNY   59  43  55 CALM      29.91S
BUFFALO WY     CLOUDY    55  40  56 SE6       29.94F
CODY           PTSUNNY   54  43  66 N10       29.94F
YELLOWSTONE LA   N/A     40  35  83 VRB5      30.06F
IDAHO FALLS    PTSUNNY   54  42  64 SW9       30.02F
SALMON         PTSUNNY   55  37  50 CALM      30.01S
BOISE          SUNNY     65  38  36 W8        30.02S
SPOKANE        PTSUNNY   61  46  57 S13       30.02R
$$

REGIONAL REPORTS...ALBERTA

CITY           SKY/WX    TMP DP  RH WIND       PRES   REMARKS
EDMONTON       SUNNY     66  46  48 S10       29.85S
CALGARY        PTSUNNY   63  41  45 SE5       29.88S
LETHBRIDGE     MOSUNNY   61  46  59 VRB7      29.87S
MEDICINE HAT   PTSUNNY   59  45  58 NE3       29.87F
$$

REGIONAL REPORTS...SASKATCHEWAN

CITY           SKY/WX    TMP DP  RH WIND       PRES   REMARKS
SWIFT CURRENT  CLOUDY    54  46  76 VRB2      29.88S
REGINA         LGT RAIN  54  48  82 NW10      29.88S
SASKATOON      PTSUNNY   59  50  72 N5        29.91F
$$




USA.gov is the U.S. government's official web portal to all federal, state and local government web resources and services.